Location: Poughquag
(41.6090°N, 73.6820°W)
Time: 09:03:20
(UTC-04:00)

Amateur Radio Satellites - All Passes

Search period start: 17 October 2017 08:33
Search period end: 18 October 2017 08:33
Location: Poughquag, 41.6090°N, 73.6820°W

Satellite Date Start Highest point End Downlink Frequencies (MHz)
Time Altitude Azimuth
CUTE 1.7 + AOD 2 17 Oct 08:35:05 08:39:06 45° 287° (WNW) 08:43:06 437.475
Oscar 11 17 Oct 08:36:53 08:39:51 18° 93° (E) 08:42:48 .
CUTE-I 17 Oct 08:37:06 08:41:15 23° 296° (WNW) 08:45:23 437.470
NO-84 17 Oct 08:40:45 08:42:16 12° 2° (N) 08:43:45 435.350 FM
SEEDS 17 Oct 08:49:30 08:53:33 51° 286° (WNW) 08:57:35 437.485
PCSat 17 Oct 08:55:50 09:00:54 43° 112° (ESE) 09:06:02 145.827
STRAND 1 17 Oct 08:55:58 08:59:05 16° 269° (W) 09:02:13 437.568
CUBEBUG 2 17 Oct 08:56:32 09:01:06 51° 287° (WNW) 09:05:30 437.445
YUBILEINY 17 Oct 09:03:12 09:10:26 31° 83° (E) 09:17:40 435.215
FO-29 17 Oct 09:08:37 09:13:47 82° 257° (WSW) 09:19:17 435.910
AO-73 17 Oct 09:08:45 09:13:07 60° 100° (E) 09:17:20 145.935
AAUSAT CUBESAT 2 17 Oct 09:24:51 09:28:47 46° 287° (WNW) 09:32:44 437.432
ZACube-1 17 Oct 09:28:29 09:32:54 72° 286° (WNW) 09:37:12 437.345
Tancredo 1 17 Oct 09:30:49 09:32:30 29° 140° (SE) 09:34:13 437.200
UNISAT 6 17 Oct 09:31:43 09:36:09 47° 72° (ENE) 09:40:39 437.425
SO-50 17 Oct 09:33:42 09:37:00 20° 318° (NW) 09:40:19 436.795
UWE-3 17 Oct 09:42:57 09:46:52 29° 292° (WNW) 09:50:41 435.000/436.395/437.385
TIGRISAT 17 Oct 09:47:26 09:51:59 64° 74° (ENE) 09:56:38 435.000
XW-2A 17 Oct 09:47:40 09:49:22 13° 293° (WNW) 09:51:04 145.665 - 145.685
DELFI C3 17 Oct 09:52:21 09:55:39 25° 95° (E) 09:58:58 145.870
HO-68 17 Oct 09:55:24 10:00:56 25° 302° (WNW) 10:06:27 435.675
EO-88 17 Oct 09:57:56 09:59:53 14° 92° (E) 10:01:52 145.990 - 145.960
Max Valier Satellite 17 Oct 09:58:36 10:01:24 20° 94° (E) 10:04:09 145.860
PRISM 17 Oct 10:09:16 10:13:11 52° 73° (ENE) 10:17:09 437.425
RS-15 17 Oct 10:11:00 10:23:01 70° 52° (NE) 10:34:19 29.354- 29.394
Oscar 11 17 Oct 10:12:07 10:16:08 39° 289° (WNW) 10:20:08 .
NO-84 17 Oct 10:17:58 10:20:56 20° 23° (NNE) 10:23:43 435.350 FM
ISS 17 Oct 10:25:59 10:27:07 11° 129° (SE) 10:28:15 437.550
PCSat 17 Oct 10:39:44 10:44:27 30° 311° (NW) 10:49:11 145.827
AO-73 17 Oct 10:46:38 10:48:48 14° 297° (WNW) 10:50:54 145.935
YUBILEINY 17 Oct 10:58:10 11:06:40 58° 283° (WNW) 11:15:16 435.215
Tancredo 1 17 Oct 11:03:19 11:04:28 14° 337° (NNW) 11:05:38 437.200
UNISAT 6 17 Oct 11:10:01 11:13:06 18° 269° (W) 11:16:14 437.425
EO-79 17 Oct 11:14:09 11:17:41 26° 68° (ENE) 11:21:14 145.935-145.965
POLYITAN 1 17 Oct 11:17:40 11:21:20 28° 69° (ENE) 11:25:01 437.675
AIST 2D 17 Oct 11:24:41 11:28:13 87° 260° (W) 11:31:44 435.315
TIGRISAT 17 Oct 11:26:56 11:29:05 13° 271° (W) 11:31:16 435.000
DELFI C3 17 Oct 11:27:07 11:30:18 24° 291° (WNW) 11:33:29 145.870
EO-88 17 Oct 11:30:21 11:33:41 35° 288° (WNW) 11:37:00 145.990 - 145.960
Max Valier Satellite 17 Oct 11:32:07 11:35:11 25° 290° (WNW) 11:38:12 145.860
nSIGHT-1 17 Oct 11:36:09 11:39:19 69° 142° (SE) 11:42:30 .
QB50P2 17 Oct 11:37:07 11:41:15 51° 73° (ENE) 11:45:25 145.880/145.840
ESTCUBE 1 17 Oct 11:40:34 11:44:13 24° 95° (E) 11:47:50 437.505/2401.250
NANOSAT C BR1 17 Oct 11:44:09 11:48:13 48° 73° (ENE) 11:52:21 145.865
PRISM 17 Oct 11:47:08 11:48:46 12° 269° (W) 11:50:24 437.425
NO-84 17 Oct 11:55:02 11:58:44 74° 224° (SW) 12:02:05 435.350 FM
DUCHIFAT 1 17 Oct 11:56:51 12:01:00 59° 74° (ENE) 12:05:13 145.980
ISS 17 Oct 11:59:53 12:03:08 81° 323° (NW) 12:06:25 437.550
M-CUBED/EXP-1 PRIME 17 Oct 12:08:23 12:08:55 10° 60° (ENE) 12:09:28 437.505
BUGSAT 1 17 Oct 12:19:26 12:22:57 27° 68° (ENE) 12:26:31 437.445
RS-15 17 Oct 12:24:28 12:34:30 35° 256° (WSW) 12:44:07 29.354- 29.394
LO-87 17 Oct 12:31:14 12:34:48 50° 285° (WNW) 12:38:18 145.935 - 145.965
BEESAT 3 17 Oct 12:40:08 12:43:32 28° 114° (ESE) 12:47:00 437.485
EO-79 17 Oct 12:49:42 12:53:20 27° 264° (W) 12:57:00 145.935-145.965
Oscar 19 17 Oct 12:50:06 12:54:42 33° 68° (ENE) 12:59:17 437.125/150
POLYITAN 1 17 Oct 12:53:31 12:57:04 25° 265° (W) 13:00:38 437.675
Gurwin Techsat 1B 17 Oct 12:53:52 12:58:12 26° 65° (ENE) 13:02:32 435.225
YUBILEINY 17 Oct 13:03:45 13:05:44 11° 306° (NW) 13:07:43 435.215
SPROUT 17 Oct 13:03:54 13:08:04 47° 99° (E) 13:12:12 437.525
nSIGHT-1 17 Oct 13:13:17 13:15:52 22° 340° (NNW) 13:18:27 .
QB50P2 17 Oct 13:15:05 13:17:18 14° 269° (W) 13:19:34 145.880/145.840
AO-85 17 Oct 13:16:56 13:18:47 13° 109° (ESE) 13:20:39 145.980
ESTCUBE 1 17 Oct 13:17:03 13:21:01 32° 291° (WNW) 13:24:58 437.505/2401.250
VELOX 1 17 Oct 13:21:40 13:26:00 49° 100° (E) 13:30:18 145.980
NANOSAT C BR1 17 Oct 13:21:51 13:24:12 14° 269° (W) 13:26:32 145.865
AO-7 17 Oct 13:29:27 13:34:55 20° 50° (NE) 13:40:23 .
DUCHIFAT 1 17 Oct 13:35:29 13:37:02 12° 270° (W) 13:38:37 145.980
UKube-1 17 Oct 13:37:25 13:38:12 10° 90° (E) 13:39:00 .
ISS 17 Oct 13:37:34 13:40:01 19° 344° (NNW) 13:42:29 437.550
M-CUBED/EXP-1 PRIME 17 Oct 13:39:38 13:43:01 48° 254° (WSW) 13:46:15 437.505
BEESAT 2 17 Oct 13:51:52 13:55:43 49° 118° (ESE) 13:59:39 435.950
BUGSAT 1 17 Oct 13:54:47 13:58:14 25° 265° (W) 14:01:45 437.445
50 SAT 17 Oct 14:04:11 14:07:20 41° 99° (E) 14:10:28 437.505
BEESAT 3 17 Oct 14:17:32 14:21:01 28° 311° (NW) 14:24:34 437.485
Oscar 19 17 Oct 14:29:28 14:33:59 30° 264° (W) 14:38:31 437.125/150
Gurwin Techsat 1B 17 Oct 14:32:54 14:37:54 41° 262° (W) 14:42:56 435.225
DX 1 17 Oct 14:38:59 14:43:22 85° 101° (E) 14:47:45 434.975-435.025
SPROUT 17 Oct 14:40:53 14:43:33 16° 296° (WNW) 14:46:14 437.525
SO-50 17 Oct 14:44:49 14:45:40 10° 33° (NNE) 14:46:32 436.795
nSIGHT-1 17 Oct 14:51:17 14:53:01 14° 1° (N) 14:54:46 .
ITAMSAT 1 17 Oct 14:54:26 14:58:58 32° 67° (ENE) 15:03:33 435.822/435.867
AO-85 17 Oct 14:54:54 14:58:40 50° 307° (NW) 15:02:34 145.980
ITUPSAT 1 17 Oct 14:58:34 14:59:35 11° 89° (E) 15:00:37 437.325
VELOX 1 17 Oct 14:59:15 15:02:02 17° 296° (WNW) 15:04:49 145.980
MOZHAYETS 4 17 Oct 15:00:41 15:02:50 13° 90° (E) 15:04:58
UKube-1 17 Oct 15:10:21 15:14:39 69° 287° (WNW) 15:18:56 .
BEESAT 17 Oct 15:14:37 15:17:43 17° 92° (E) 15:20:47 436.000
ISS 17 Oct 15:15:31 15:17:26 14° 4° (N) 15:19:21 437.550
AO-7 17 Oct 15:18:10 15:26:28 81° 70° (ENE) 15:34:47 .
BEESAT 2 17 Oct 15:30:51 15:33:43 19° 316° (NW) 15:36:38 435.950
50 SAT 17 Oct 15:38:27 15:39:16 11° 295° (WNW) 15:40:05 437.505
Tancredo 1 17 Oct 15:39:59 15:41:46 45° 33° (NNE) 15:43:32 437.200
DX 1 17 Oct 16:18:42 16:18:52 10° 300° (WNW) 16:19:01 434.975-435.025
SO-50 17 Oct 16:22:37 16:27:08 54° 53° (NE) 16:31:43 436.795
nSIGHT-1 17 Oct 16:27:31 16:30:10 23° 21° (NNE) 16:32:49 .
ITUPSAT 1 17 Oct 16:33:09 16:37:59 80° 284° (WNW) 16:42:45 437.325
ITAMSAT 1 17 Oct 16:33:46 16:38:22 32° 263° (W) 16:43:01 435.822/435.867
MOZHAYETS 4 17 Oct 16:35:51 16:40:23 61° 286° (WNW) 16:44:53
CUBESAT XI-V 17 Oct 16:38:18 16:42:22 31° 96° (E) 16:46:26 437.345
CUTE-I 17 Oct 16:42:50 16:44:26 11° 57° (ENE) 16:46:01 437.470
BEESAT 17 Oct 16:51:07 16:55:46 51° 288° (WNW) 17:00:23 436.000
ISS 17 Oct 16:51:46 16:54:41 29° 24° (NNE) 16:57:37 437.550
KKS-1 17 Oct 16:52:35 16:54:14 12° 90° (E) 16:55:53 437.445
HO-68 17 Oct 16:54:48 16:55:52 10° 47° (NE) 16:56:57 435.675
DOVE 4 17 Oct 17:03:35 17:07:39 59° 74° (ENE) 17:11:52 437.250
AO-7 17 Oct 17:14:09 17:20:03 21° 268° (W) 17:26:00 .
LilacSat-2 17 Oct 17:28:02 17:31:16 26° 70° (ENE) 17:34:28 437.200
XW-2F 17 Oct 17:30:08 17:33:12 24° 69° (ENE) 17:36:15 145.980 - 146.000
STARS 17 Oct 17:34:20 17:36:33 13° 91° (E) 17:38:45 437.465
KAITUO 1B 17 Oct 17:34:23 17:37:13 21° 69° (ENE) 17:40:03 145.475/437.950
XW-2D 17 Oct 17:39:24 17:42:50 33° 72° (ENE) 17:46:17 145.860 - 145.880
PCSat 17 Oct 17:43:18 17:48:21 38° 52° (NE) 17:53:22 145.827
XW-2B 17 Oct 17:52:29 17:56:08 46° 74° (ENE) 17:59:48 145.730 - 145.750
NUDT-PHONESAT 17 Oct 17:53:31 17:56:53 33° 72° (ENE) 18:00:15 437.300
CUTE 1.7 + AOD 2 17 Oct 17:54:35 17:56:06 12° 63° (ENE) 17:57:38 437.475
nSIGHT-1 17 Oct 18:03:29 18:06:40 62° 219° (SW) 18:09:51 .
SO-50 17 Oct 18:04:07 18:07:11 18° 250° (WSW) 18:10:18 436.795
XW-2C 17 Oct 18:15:21 18:19:10 87° 263° (W) 18:22:59 145.795 - 145.815
CUBESAT XI-V 17 Oct 18:15:48 18:19:37 26° 292° (WNW) 18:23:27 437.345
CUTE-I 17 Oct 18:18:16 18:23:34 80° 73° (ENE) 18:28:55 437.470
CUBEBUG 2 17 Oct 18:19:43 18:22:21 15° 63° (ENE) 18:25:02 437.445
KKS-1 17 Oct 18:26:45 18:31:13 66° 286° (WNW) 18:35:39 437.445
ISS 17 Oct 18:28:08 18:31:15 40° 221° (SW) 18:34:20 437.550
HO-68 17 Oct 18:35:06 18:41:59 53° 67° (ENE) 18:48:54 435.675
AAUSAT CUBESAT 2 17 Oct 18:43:06 18:43:36 10° 62° (ENE) 18:44:06 437.432
DOVE 4 17 Oct 18:44:40 18:45:49 11° 271° (W) 18:46:57 437.250
XW-2A 17 Oct 18:46:28 18:47:58 12° 66° (ENE) 18:49:27 145.665 - 145.685
LilacSat-2 17 Oct 19:02:29 19:05:29 21° 265° (W) 19:08:29 437.200
UWE-3 17 Oct 19:03:27 19:07:08 24° 67° (ENE) 19:10:53 435.000/436.395/437.385
XW-2F 17 Oct 19:04:10 19:07:13 23° 265° (W) 19:10:18 145.980 - 146.000
KAITUO 1B 17 Oct 19:07:52 19:11:02 26° 264° (W) 19:14:14 145.475/437.950
STARS 17 Oct 19:08:52 19:13:13 56° 287° (WNW) 19:17:33 437.465
YUBILEINY 17 Oct 19:13:18 19:18:00 15° 58° (ENE) 19:22:41 435.215
XW-2D 17 Oct 19:14:38 19:17:06 16° 267° (W) 19:19:33 145.860 - 145.880
STRAND 1 17 Oct 19:25:35 19:29:23 20° 93° (E) 19:33:10 437.568
PCSat 17 Oct 19:26:52 19:31:39 32° 250° (WSW) 19:36:24 145.827
CUTE 1.7 + AOD 2 17 Oct 19:27:10 19:31:23 66° 259° (W) 19:35:36 437.475
NUDT-PHONESAT 17 Oct 19:28:29 19:30:49 16° 267° (W) 19:33:10 437.300
XW-2B 17 Oct 19:29:03 19:30:33 12° 269° (W) 19:32:03 145.730 - 145.750
Oscar 11 17 Oct 19:32:23 19:34:55 15° 64° (ENE) 19:37:26 .
SEEDS 17 Oct 19:40:36 19:44:48 77° 260° (W) 19:48:59 437.485
CUBEBUG 2 17 Oct 19:53:50 19:58:24 62° 259° (W) 20:03:07 437.445
CUTE-I 17 Oct 20:02:00 20:04:13 13° 271° (W) 20:06:27 437.470
AO-73 17 Oct 20:03:36 20:07:58 47° 72° (ENE) 20:12:22 145.935
AAUSAT CUBESAT 2 17 Oct 20:14:21 20:18:27 73° 258° (WSW) 20:22:33 437.432
XW-2A 17 Oct 20:17:07 20:20:19 37° 262° (W) 20:23:32 145.665 - 145.685
FO-29 17 Oct 20:17:25 20:21:20 15° 89° (E) 20:25:25 435.910
ZACube-1 17 Oct 20:23:26 20:28:01 87° 73° (ENE) 20:32:38 437.345
HO-68 17 Oct 20:23:49 20:29:56 30° 265° (W) 20:36:08 435.675
DELFI C3 17 Oct 20:38:34 20:40:53 15° 66° (ENE) 20:43:13 145.870
UWE-3 17 Oct 20:39:08 20:43:22 36° 263° (W) 20:47:41 435.000/436.395/437.385
Max Valier Satellite 17 Oct 20:39:31 20:40:18 11° 64° (ENE) 20:41:04 145.860
O/OREOS (USA 219) 17 Oct 20:42:27 20:45:58 22° 101° (ESE) 20:49:30 437.305
BEESAT 3 17 Oct 20:56:29 20:59:28 20° 45° (NE) 21:02:25 437.485
STRAND 1 17 Oct 21:03:50 21:08:48 49° 289° (WNW) 21:13:44 437.568
Oscar 11 17 Oct 21:06:23 21:10:36 51° 260° (W) 21:14:51 .
YUBILEINY 17 Oct 21:07:42 21:16:32 73° 80° (E) 21:25:20 435.215
TIGRISAT 17 Oct 21:40:31 21:42:48 14° 89° (E) 21:45:05 435.000
AO-73 17 Oct 21:41:26 21:44:25 17° 269° (W) 21:47:25 145.935
AO-85 17 Oct 21:45:18 21:48:32 19° 44° (NE) 21:51:56 145.980
FO-29 17 Oct 22:00:10 22:06:58 87° 106° (ESE) 22:14:31 435.910
EO-88 17 Oct 22:07:14 22:10:53 88° 255° (WSW) 22:14:34 145.990 - 145.960
BEESAT 2 17 Oct 22:09:15 22:12:55 32° 50° (NE) 22:16:32 435.950
Max Valier Satellite 17 Oct 22:09:56 22:13:36 57° 259° (W) 22:17:19 145.860
DELFI C3 17 Oct 22:11:37 22:15:18 40° 262° (W) 22:19:00 145.870
O/OREOS (USA 219) 17 Oct 22:20:55 22:25:07 36° 299° (WNW) 22:29:24 437.305
BEESAT 3 17 Oct 22:33:27 22:37:12 42° 243° (WSW) 22:40:52 437.485
ESTCUBE 1 17 Oct 22:40:18 22:43:52 23° 67° (ENE) 22:47:26 437.505/2401.250
UNISAT 6 17 Oct 22:59:34 23:04:14 80° 283° (WNW) 23:08:45 437.425
YUBILEINY 17 Oct 23:05:54 23:12:24 24° 280° (W) 23:18:54 435.215
LO-87 17 Oct 23:06:43 23:10:14 59° 75° (ENE) 23:13:48 145.935 - 145.965
TIGRISAT 17 Oct 23:15:18 23:19:54 60° 286° (WNW) 23:24:21 435.000
AO-85 17 Oct 23:24:45 23:29:17 64° 240° (WSW) 23:34:09 145.980
PRISM 17 Oct 23:25:01 23:29:09 86° 103° (ESE) 23:33:17 437.425
FO-29 17 Oct 23:46:52 23:51:20 19° 300° (WNW) 23:56:05 435.910
BEESAT 2 17 Oct 23:47:15 23:50:30 24° 247° (WSW) 23:53:42 435.950
SPROUT 17 Oct 23:57:05 00:00:59 36° 71° (ENE) 00:04:56 437.525
ESTCUBE 1 18 Oct 00:16:23 00:20:28 34° 263° (W) 00:24:35 437.505/2401.250
VELOX 1 18 Oct 00:18:49 00:22:58 44° 71° (ENE) 00:27:08 145.980
AIST 2D 18 Oct 00:22:18 00:25:46 71° 283° (WNW) 00:29:12 435.315
UKube-1 18 Oct 00:32:51 00:33:23 10° 60° (ENE) 00:33:55 .
EO-79 18 Oct 00:33:18 00:37:25 45° 99° (E) 00:41:29 145.935-145.965
RS-15 18 Oct 00:33:41 00:44:53 44° 108° (ESE) 00:56:06 29.354- 29.394
50 SAT 18 Oct 00:34:03 00:35:51 14° 67° (ENE) 00:37:40 437.505
POLYITAN 1 18 Oct 00:37:09 00:41:19 50° 100° (E) 00:45:26 437.675
QB50P2 18 Oct 00:57:07 01:01:25 86° 280° (W) 01:05:40 145.880/145.840
NANOSAT C BR1 18 Oct 01:03:27 01:07:43 89° 101° (E) 01:11:57 145.865
Oscar 19 18 Oct 01:04:15 01:05:04 10° 88° (E) 01:05:53 437.125/150
DUCHIFAT 1 18 Oct 01:15:54 01:20:10 76° 284° (WNW) 01:24:22 145.980
SPROUT 18 Oct 01:33:51 01:36:58 20° 267° (W) 01:40:07 437.525
DX 1 18 Oct 01:34:15 01:38:33 74° 75° (ENE) 01:42:54 434.975-435.025
BUGSAT 1 18 Oct 01:35:23 01:39:27 43° 99° (E) 01:43:27 437.445
VELOX 1 18 Oct 01:56:48 01:59:37 17° 268° (W) 02:02:26 145.980
MOZHAYETS 4 18 Oct 02:02:52 02:05:21 14° 62° (ENE) 02:07:49
UKube-1 18 Oct 02:04:26 02:08:44 81° 257° (WSW) 02:13:03 .
ITUPSAT 1 18 Oct 02:04:40 02:07:17 15° 61° (ENE) 02:09:55 437.325
50 SAT 18 Oct 02:05:03 02:07:55 28° 263° (W) 02:10:48 437.505
EO-79 18 Oct 02:10:05 02:12:48 17° 295° (WNW) 02:15:30 145.935-145.965
POLYITAN 1 18 Oct 02:14:09 02:16:40 15° 296° (WNW) 02:19:08 437.675
BEESAT 18 Oct 02:21:02 02:24:36 21° 64° (ENE) 02:28:11 436.000
Oscar 19 18 Oct 02:39:54 02:45:04 88° 283° (WNW) 02:50:10 437.125/150
RS-15 18 Oct 02:44:49 02:56:59 62° 311° (NW) 03:09:10 29.354- 29.394
Gurwin Techsat 1B 18 Oct 02:48:25 02:53:46 77° 103° (ESE) 02:59:05 435.225
M-CUBED/EXP-1 PRIME 18 Oct 02:50:48 02:54:17 79° 288° (WNW) 02:58:01 437.505
NO-84 18 Oct 03:10:50 03:13:30 16° 124° (SE) 03:16:10 435.350 FM
BUGSAT 1 18 Oct 03:11:42 03:14:25 17° 295° (WNW) 03:17:09 437.445
AO-7 18 Oct 03:20:28 03:27:05 26° 94° (E) 03:33:40 .
MOZHAYETS 4 18 Oct 03:37:21 03:41:57 64° 259° (W) 03:46:35
ITUPSAT 1 18 Oct 03:39:46 03:44:32 67° 258° (WSW) 03:49:21 437.325
CUBESAT XI-V 18 Oct 03:41:37 03:45:41 31° 69° (ENE) 03:49:45 437.345
KKS-1 18 Oct 03:51:10 03:52:59 12° 61° (ENE) 03:54:49 437.445
BEESAT 18 Oct 03:57:31 04:02:04 43° 261° (W) 04:06:39 436.000
Oscar 19 18 Oct 04:21:46 04:23:35 12° 302° (WNW) 04:25:24 437.125/150
Gurwin Techsat 1B 18 Oct 04:30:05 04:33:02 15° 300° (WNW) 04:35:59 435.225
STARS 18 Oct 04:31:32 04:33:39 13° 62° (ENE) 04:35:47 437.465
ITAMSAT 1 18 Oct 04:45:32 04:50:48 87° 105° (ESE) 04:56:02 435.822/435.867
NO-84 18 Oct 04:46:12 04:50:31 76° 320° (NW) 04:54:43 435.350 FM
DOVE 4 18 Oct 05:02:01 05:05:29 19° 92° (E) 05:09:01 437.250
RS-15 18 Oct 05:02:45 05:12:43 27° 340° (NNW) 05:22:32 29.354- 29.394
AO-7 18 Oct 05:12:13 05:20:27 70° 292° (WNW) 05:28:40 .
CUBESAT XI-V 18 Oct 05:19:10 05:23:02 26° 265° (W) 05:26:55 437.345
KKS-1 18 Oct 05:24:32 05:28:56 70° 258° (WSW) 05:33:24 437.445
STARS 18 Oct 06:05:06 06:09:27 63° 258° (WSW) 06:13:49 437.465
NO-84 18 Oct 06:25:20 06:28:29 20° 338° (NNW) 06:31:33 435.350 FM
ITAMSAT 1 18 Oct 06:27:08 06:29:30 13° 302° (WNW) 06:31:52 435.822/435.867
LilacSat-2 18 Oct 06:34:31 06:38:01 36° 98° (E) 06:41:29 437.200
XW-2F 18 Oct 06:35:13 06:38:34 31° 97° (E) 06:41:54 145.980 - 146.000
CUTE-I 18 Oct 06:35:24 06:40:09 31° 96° (E) 06:44:53 437.470
KAITUO 1B 18 Oct 06:38:16 06:41:25 26° 96° (E) 06:44:32 145.475/437.950
DOVE 4 18 Oct 06:38:35 06:43:21 52° 287° (WNW) 06:48:20 437.250
SO-50 18 Oct 06:38:49 06:41:27 16° 109° (ESE) 06:44:06 436.795
STRAND 1 18 Oct 06:41:24 06:45:49 30° 67° (ENE) 06:50:16 437.568
XW-2D 18 Oct 06:45:13 06:48:51 47° 99° (E) 06:52:28 145.860 - 145.880
O/OREOS (USA 219) 18 Oct 06:51:09 06:55:35 44° 63° (ENE) 06:59:59 437.305
NUDT-PHONESAT 18 Oct 06:56:43 07:00:14 43° 99° (E) 07:03:43 437.300
XW-2B 18 Oct 06:58:30 07:02:15 68° 102° (ESE) 07:05:57 145.730 - 145.750
AO-7 18 Oct 07:06:59 07:11:46 17° 313° (NW) 07:16:33 .
CUTE 1.7 + AOD 2 18 Oct 07:12:24 07:15:32 20° 93° (E) 07:18:39 437.475
RS-15 18 Oct 07:21:09 07:30:48 26° 16° (NNE) 07:40:06 29.354- 29.394
XW-2C 18 Oct 07:21:38 07:25:20 58° 285° (WNW) 07:29:00 145.795 - 145.815
SEEDS 18 Oct 07:25:03 07:27:48 17° 92° (E) 07:30:32 437.485
XW-2A 18 Oct 07:40:04 07:41:08 11° 91° (E) 07:42:12 145.665 - 145.685
CUBEBUG 2 18 Oct 07:44:52 07:48:55 28° 95° (E) 07:52:50 437.445
HO-68 18 Oct 07:49:49 07:56:53 54° 101° (E) 08:03:53 435.675
AAUSAT CUBESAT 2 18 Oct 07:57:02 07:59:43 17° 92° (E) 08:02:25 437.432
NO-84 18 Oct 08:05:37 08:07:12 12° 359° (N) 08:08:45 435.350 FM
LilacSat-2 18 Oct 08:09:42 08:12:00 16° 294° (WNW) 08:14:16 437.200
XW-2F 18 Oct 08:09:57 08:12:26 17° 293° (WNW) 08:14:54 145.980 - 146.000
KAITUO 1B 18 Oct 08:12:32 08:15:14 20° 292° (WNW) 08:17:56 145.475/437.950
ZACube-1 18 Oct 08:12:52 08:15:42 17° 91° (E) 08:18:26 437.345
FO-29 18 Oct 08:14:17 08:18:54 34° 66° (ENE) 08:23:49 435.910
CUTE-I 18 Oct 08:15:22 08:20:10 34° 293° (WNW) 08:24:58 437.470
SO-50 18 Oct 08:17:01 08:21:25 58° 306° (NW) 08:25:53 436.795
YUBILEINY 18 Oct 08:17:03 08:21:41 16° 76° (ENE) 08:26:20 435.215
STRAND 1 18 Oct 08:20:18 08:24:54 33° 264° (W) 08:29:32 437.568
XW-2D 18 Oct 08:21:03 08:22:36 12° 295° (WNW) 08:24:09 145.860 - 145.880
UNISAT 6 18 Oct 08:25:41 08:26:28 10° 59° (ENE) 08:27:16 437.425
